Starlink 11123

operational
NORAD ID: 59948 Int'l Des: 2024-107 Owner: SPXS Country: US Constellation: starlink
LEOCIRCULAR

About Starlink 11123

Description loading...

Live Position

Loading 3D Globe...

Upcoming Passes

Altitude History

Altitude vs Time

uPlot chart will show altitude changes over time

Two-Line Element Set

1 59948U 24107D 25354.04177282 -.00000070 00000-0 42837-5 0 9996
2 59948 53.1597 284.0991 0001182 102.9074 257.2076 15.69709229 89696
Epoch: Dec 20, 2025 • Age: 19 hours

Current Status

Altitude 378.1 km
Velocity 7.68 km/s
Sub-Earth Point -51.12°S, 131.57°E
Launch Date Jun 5, 2024
Age 1.5 years
Type internet

Technical Details

Classification Payload
Mass 960.00 kg
Dry Mass 910.00 kg
Total Mass 960.00 kg
Length 0.30 m
Diameter 4.10 m
Span 29.00 m
Shape Box + pan
Manufacturer SPXS
Bus Type Starlink V2MD
Phase Status In Orbit
Owner/State SPXS/US

Large Constellations

Loading constellations...